{"data":{"norad_id":48270,"epoch":"2026-05-25T03:00:12.038112Z","epoch_age_seconds":74890,"freshness":"FRESH","line1":"1 48270U 21034C   26145.12513933  .00003036  00000+0  22842-3 0  9998","line2":"2 48270  97.5623 200.5644 0005503   1.5248 358.5993 15.03261345276152","mean_motion":15.03261345,"eccentricity":0.0005503,"inclination_deg":97.5623,"raan_deg":200.5644,"arg_perigee_deg":1.5248,"mean_anomaly_deg":358.5993,"bstar":0.00022842,"rev_number":27615,"period_min":95.79172675394,"perigee_km":553.03149458883,"apogee_km":560.66413887813,"semimajor_km":6934.9848167335,"source":"CELESTRAK","updated_at":"2026-05-25T13:37:56.743634Z"}}